GW3137 Weather Reports


time (UTC)temp
C
wind
direction
speed
KPH
gust
KPH
rain 1hr
cm
rain 24hr
cm
rain mn
cm
humidity
%
barometer
mb
20260906140204 11 94 1.6 4.8 0.00 0.00 0.00 87 1015.9
20260906133204 11 117 0.0 3.2 0.00 0.00 0.00 86 1015.8
20260906130704 12 80 1.6 1.6 0.00 0.00 0.00 84 1015.9
20260906130204 12 80 0.0 4.8 0.00 0.00 0.00 84 1015.9
20260906123703 12 120 1.6 4.8 0.00 0.00 0.00 87 1016.0
20260906120703 11 69 0.0 0.0 0.00 0.00 0.00 88 1015.8
20260906113703 12 69 0.0 0.0 0.00 0.00 0.00 87 1016.0
20260906113204 12 69 0.0 0.0 0.00 0.00 0.00 87 1016.1
20260906110704 12 69 0.0 0.0 0.00 0.00 0.00 87 1016.0
20260906110204 12 69 0.0 4.8 0.00 0.00 0.00 87 1016.0
20260906103704 12 33 1.6 3.2 0.00 0.00 0.00 87 1016.0
20260906103204 13 33 0.0 3.2 0.00 0.00 0.00 87 1015.9
20260906100704 13 33 0.0 0.0 0.00 0.00 0.00 88 1016.0
20260906100203 13 33 0.0 0.0 0.00 0.00 0.00 88 1016.0
20260906093703 13 33 0.0 0.0 0.00 0.00 0.00 87 1015.9
20260906093204 13 33 0.0 0.0 0.00 0.00 0.00 87 1015.9
20260906090704 14 33 0.0 3.2 0.00 0.00 0.00 86 1015.9
20260906090204 13 33 0.0 4.8 0.00 0.00 0.00 86 1015.9
20260906083204 13 71 0.0 0.0 0.00 0.00 0.00 85 1016.0
20260906080203 13 71 0.0 0.0 0.00 0.00 0.00 84 1016.0
20260906073704 13 71 0.0 1.6 0.00 0.00 0.00 83 1015.9
20260906073204 13 71 1.6 4.8 0.00 0.00 0.00 83 1016.1
20260906070703 14 71 3.2 4.8 0.00 0.00 0.00 82 1016.2
20260906070204 14 71 3.2 4.8 0.00 0.00 0.00 82 1016.2
20260906063704 14 71 1.6 4.8 0.00 0.00 0.00 82 1016.2
20260906063203 14 71 1.6 4.8 0.00 0.00 0.00 82 1016.3
20260906060704 15 42 0.0 0.0 0.00 0.00 0.00 78 1016.3
20260906060204 15 42 0.0 0.0 0.00 0.00 0.00 79 1016.3
20260906053704 15 42 0.0 0.0 0.00 0.00 0.00 78 1016.4
20260906053204 15 42 0.0 0.0 0.00 0.00 0.00 78 1016.5
20260906050203 16 42 0.0 0.0 0.00 0.00 0.00 77 1016.6
20260906043704 16 42 0.0 0.0 0.00 0.00 0.00 77 1016.5
20260906043204 16 42 0.0 0.0 0.00 0.00 0.00 77 1016.6
20260906040703 17 42 0.0 0.0 0.00 0.00 0.00 72 1016.7
20260906040204 17 42 0.0 4.8 0.00 0.00 0.00 72 1016.6
20260906033704 17 325 0.0 0.0 0.00 0.00 0.00 73 1016.7
20260906033203 17 323 0.0 3.2 0.00 0.00 0.00 72 1016.6
20260906030704 18 26 0.0 3.2 0.00 0.00 0.00 68 1016.4
20260906030204 18 26 1.6 3.2 0.00 0.00 0.00 68 1016.4
20260906023203 19 26 0.0 4.8 0.00 0.00 0.00 63 1016.2
20260906020704 20 26 0.0 0.0 0.00 0.00 0.00 58 1016.2
20260906013703 22 15 3.2 8.0 0.00 0.00 0.00 54 1016.1
20260906013204 22 306 3.2 4.8 0.00 0.00 0.00 53 1016.1
20260906010704 22 110 3.2 4.8 0.00 0.00 0.00 50 1016.0
20260906010205 22 136 3.2 9.7 0.00 0.00 0.00 50 1016.0
20260906003704 22 304 1.6 3.2 0.00 0.00 0.00 51 1016.0
20260906003204 23 321 1.6 4.8 0.00 0.00 0.00 50 1016.0
20260906000704 21 253 1.6 3.2 0.00 0.00 0.00 53 1016.0
20260906000204 21 242 1.6 9.7 0.00 0.00 0.00 54 1016.0
20260905233703 22 215 1.6 4.8 0.00 0.00 0.00 52 1016.1
20260905233204 22 355 0.0 4.8 0.00 0.00 0.00 52 1016.1
20260905230704 22 344 3.2 4.8 0.00 0.00 0.00 49 1016.3
20260905230204 22 7 1.6 4.8 0.00 0.00 0.00 53 1016.4
20260905223704 21 201 1.6 4.8 0.00 0.00 0.00 58 1016.7
20260905223204 21 322 1.6 4.8 0.00 0.00 0.00 59 1016.7
20260905220704 18 140 1.6 4.8 0.00 0.00 0.00 65 1017.0
20260905220204 18 173 1.6 8.0 0.00 0.00 0.00 66 1017.1
20260905213704 18 56 1.6 4.8 0.00 0.00 0.00 67 1017.2
20260905213203 18 124 1.6 4.8 0.00 0.00 0.00 67 1017.3
20260905210703 18 136 1.6 4.8 0.00 0.00 0.00 70 1017.4
20260905210204 18 237 1.6 4.8 0.00 0.00 0.00 70 1017.4
20260905203704 17 122 1.6 4.8 0.00 0.00 0.00 68 1017.5
20260905203205 17 202 1.6 8.0 0.00 0.00 0.00 68 1017.6
20260905200205 17 210 1.6 8.0 0.00 0.00 0.00 67 1017.8
20260905193203 17 204 1.6 11.3 0.00 0.00 0.00 69 1017.8
20260905190704 17 186 3.2 4.8 0.00 0.00 0.00 71 1018.0
20260905183704 17 172 4.8 9.7 0.00 0.00 0.00 73 1018.2
20260905183204 17 165 3.2 11.3 0.00 0.00 0.00 73 1018.1
20260905180204 17 189 3.2 9.7 0.00 0.00 0.00 74 1018.2
20260905173704 17 85 1.6 4.8 0.00 0.00 0.00 74 1018.1
20260905173204 16 251 0.0 11.3 0.00 0.00 0.00 73 1018.1
20260905170704 16 293 3.2 4.8 0.00 0.00 0.00 75 1018.0
20260905163704 16 308 3.2 4.8 0.00 0.00 0.00 74 1017.8
20260905163204 16 194 0.0 4.8 0.00 0.00 0.00 75 1017.8
20260905160704 15 269 1.6 3.2 0.00 0.00 0.00 78 1017.8
20260905160204 15 191 1.6 4.8 0.00 0.00 0.00 79 1017.9
20260905153704 14 281 1.6 3.2 0.00 0.00 0.00 84 1017.9
20260905153204 13 287 3.2 4.8 0.00 0.00 0.00 84 1018.0
20260905150704 13 128 0.0 3.2 0.00 0.00 0.00 86 1017.9
20260905150203 13 128 0.0 4.8 0.00 0.00 0.00 86 1017.8
20260905143704 12 113 1.6 4.8 0.00 0.00 0.00 87 1017.5
20260905143203 12 98 1.6 4.8 0.00 0.00 0.00 87 1017.5